Hourly Data Report for November 01, 2019

OTTAWA INTL A
ONTARIO
Current Station Operator: NAVCAN

45°19'00.000" N
75°40'00.000" W
114.90 m
6106001
71628
YOW

Download Data

Hourly Data (November 2019)
Hourly Data Report for November 1, 2019
TIME Temp Definition
°C
Dew Point Definition
°C
Rel Hum Definition
%
Wind Dir Definition
10's deg

Wind Spd Definition
km/h
Visibility Definition
km
Stn Press Definition
kPa
Hmdx Definition


Wind Chill Definition


Weather Definition


00:00 7.0 6.6 98 26 14 16.1 97.85     Rain
01:00 8.4 7.9 97 20 14 24.1 98.10     Rain
02:00 7.9 3.8 75 22 34 24.1 97.99     LegendNANA
03:00 6.6 4.2 85 20 33 24.1 97.92     Rain
04:00 6.0 3.0 81 19 39 24.1 97.75     Mostly Cloudy
05:00 5.6 2.2 79 22 32 24.1 97.80     LegendNANA
06:00 3.8 1.2 83 23 34 24.1 97.93     Rain
07:00 2.8 -1.5 73 25 49 24.1 98.35     Mostly Cloudy
08:00 2.4 -3.7 64 25 53 24.1 98.75     LegendNANA
09:00 2.3 -3.9 64 26 42 24.1 99.08     LegendNANA
10:00 3.1 -3.6 61 27 45 24.1 99.40     Mostly Cloudy
11:00 3.5 -3.5 60 27 40 24.1 99.63     LegendNANA
12:00 3.8 -4.3 55 26 54 24.1 99.82     LegendNANA
13:00 3.3 -4.3 57 26 44 24.1 100.03     Mostly Cloudy
14:00 3.1 -4.3 58 27 36 24.1 100.22     LegendNANA
15:00 2.7 -5.1 57 28 36 24.1 100.42     LegendNANA
16:00 2.3 -5.3 57 26 28 24.1 100.57     Mostly Cloudy
17:00 1.8 -5.4 59 27 26 24.1 100.72     LegendNANA
18:00 1.6 -5.5 59 27 19 24.1 100.83     LegendNANA
19:00 1.1 -5.6 61 29 16 24.1 100.88     Mostly Cloudy
20:00 0.3 -6.5 61 28 16 24.1 100.89     LegendNANA
21:00 -1.9 -6.5 71 26 8 24.1 100.95   -5 LegendNANA
22:00 -1.4 -5.5 74 22 7 24.1 100.97   -4 Mainly Clear
23:00 -3.1 -5.6 83 36 1 24.1 100.97   -4 LegendNANA

Notes on Data Quality.

Legend

  • E = Estimated
  • M = Missing
  • NA = Not Available*
  • [empty] = Indicates an unobserved value
Date modified: